Orange City, IA

7:21 PM CST on January 21, 2018 (GMT -0600)
Orange City Municipal

Weather History for KORC - November, 2012

Change the Weather History Date:

Friday, November 23, 2012

  Actual Average Record
Temperature  
Mean Temperature 22 °F -  
Max Temperature 28 °F 39 °F 59 °F (2006)
Min Temperature 17 °F 23 °F -5 °F (1950)
Degree Days  
Heating Degree Days 42    
Moisture  
Dew Point 11 °F    
Average Humidity 61    
Maximum Humidity 74    
Minimum Humidity 47    
Precipitation  
Precipitation 0.00 in - - ()
Sea Level Pressure  
Sea Level Pressure 30.37 in    
Wind  
Wind Speed 19 mph (NW)    
Max Wind Speed 30 mph    
Max Gust Speed 40 mph    
Visibility 10 miles    
Events      
Averages and records for this station are not official NWS values.
T = Trace of Precipitation, MM = Missing Value Source: NWS Daily Summary

Daily Weather History Graph

Daily Weather History Graph

Search for Another Location

Airport or City:

Trip Planner

Search our weather history database for the weather conditions in past years. The results will help you decide how hot, cold, wet, or windy it might be!

Date:

Astronomy

Nov. 23, 2012 Rise Set
Actual Time 7:27 AM CST 4:54 PM CST
Civil Twilight 6:55 AM CST 5:25 PM CST
Nautical Twilight 6:21 AM CST 6:00 PM CST
Astronomical Twilight 5:47 AM CST 6:34 PM CST
Moon 2:14 PM CST (11/23) 2:41 AM CST (11/23)
Length of Visible Light 10h 29m
Length of Day
9h 26m
Waxing Gibbous, 80% of the Moon is Illuminated
Nov 23
Waxing Gibbous
Nov 28
Full
Dec 6
Last Quarter
Dec 13
New
Dec 19
First Quarter

Hourly Weather History & Observations

Time (CST) Temp. Windchill Dew Point Humidity Pressure Visibility Wind Dir Wind Speed Gust Speed Precip Events Conditions
12:15 AM 28.4 °F 13.8 °F 15.8 °F 59% 30.22 in 10.0 mi NW 25.3 mph 33.4 mph N/A   Overcast
12:35 AM 28.4 °F 14.1 °F 15.8 °F 59% 30.22 in 10.0 mi NW 24.2 mph 38.0 mph N/A   Mostly Cloudy
12:55 AM 28.4 °F 12.7 °F 15.8 °F 59% 30.23 in 10.0 mi NW 29.9 mph 39.1 mph N/A   Overcast
1:15 AM 26.6 °F 11.1 °F 17.6 °F 69% 30.24 in 10.0 mi NW 26.5 mph 39.1 mph N/A   Overcast
1:35 AM 26.6 °F 11.1 °F 17.6 °F 69% 30.24 in 10.0 mi NW 26.5 mph 40.3 mph N/A   Overcast
1:55 AM 26.6 °F 10.6 °F 17.6 °F 69% 30.25 in 10.0 mi NW 28.8 mph 39.1 mph N/A   Overcast
2:15 AM 26.6 °F 11.7 °F 15.8 °F 64% 30.26 in 10.0 mi NW 24.2 mph 39.1 mph N/A   Overcast
2:35 AM 26.6 °F 10.3 °F 14.0 °F 59% 30.27 in 10.0 mi NW 29.9 mph 38.0 mph N/A   Overcast
2:55 AM 24.8 °F 9.6 °F 12.2 °F 59% 30.28 in 10.0 mi NW 23.0 mph 33.4 mph N/A   Scattered Clouds
3:15 AM 24.8 °F 9.6 °F 14.0 °F 64% 30.29 in 10.0 mi NW 23.0 mph 32.2 mph N/A   Scattered Clouds
3:35 AM 24.8 °F 9.3 °F 12.2 °F 59% 30.30 in 10.0 mi NW 24.2 mph 38.0 mph N/A   Mostly Cloudy
3:55 AM 23.0 °F 9.2 °F 12.2 °F 63% 30.31 in 10.0 mi NW 17.3 mph 24.2 mph N/A   Mostly Cloudy
4:15 AM 23.0 °F 6.9 °F 12.2 °F 63% 30.31 in 10.0 mi NW 24.2 mph 32.2 mph N/A   Mostly Cloudy
4:35 AM 21.2 °F 4.9 °F 12.2 °F 68% 30.32 in 10.0 mi NW 23.0 mph 38.0 mph N/A   Overcast
4:55 AM 21.2 °F 4.2 °F 12.2 °F 68% 30.32 in 10.0 mi NW 25.3 mph 34.5 mph N/A   Mostly Cloudy
5:15 AM 21.2 °F 4.2 °F 12.2 °F 68% 30.33 in 10.0 mi NW 25.3 mph 32.2 mph N/A   Mostly Cloudy
5:35 AM 21.2 °F 5.6 °F 12.2 °F 68% 30.33 in 10.0 mi NW 20.7 mph 34.5 mph N/A   Mostly Cloudy
5:55 AM 21.2 °F 4.2 °F 12.2 °F 68% 30.33 in 10.0 mi NW 25.3 mph 29.9 mph N/A   Scattered Clouds
6:15 AM 21.2 °F 4.5 °F 12.2 °F 68% 30.34 in 10.0 mi NW 24.2 mph 33.4 mph N/A   Clear
6:35 AM 19.4 °F 2.8 °F 12.2 °F 74% 30.34 in 10.0 mi NW 21.9 mph 33.4 mph N/A   Clear
6:55 AM 19.4 °F 3.6 °F 12.2 °F 74% 30.36 in 10.0 mi NW 19.6 mph 31.1 mph N/A   Clear
7:15 AM 19.4 °F 4.1 °F 12.2 °F 74% 30.36 in 10.0 mi NW 18.4 mph 31.1 mph N/A   Scattered Clouds
7:35 AM 19.4 °F 5.0 °F 12.2 °F 74% 30.38 in 10.0 mi NNW 16.1 mph 25.3 mph N/A   Mostly Cloudy
7:55 AM 19.4 °F 5.0 °F 12.2 °F 74% 30.39 in 10.0 mi NNW 16.1 mph 24.2 mph N/A   Overcast
8:15 AM 21.2 °F 6.0 °F 12.2 °F 68% 30.40 in 10.0 mi NW 19.6 mph 31.1 mph N/A   Overcast
8:35 AM 21.2 °F 5.6 °F 10.4 °F 63% 30.40 in 10.0 mi NNW 20.7 mph 29.9 mph N/A   Overcast
8:55 AM 21.2 °F 6.0 °F 10.4 °F 63% 30.41 in 10.0 mi NNW 19.6 mph 25.3 mph N/A   Mostly Cloudy
9:15 AM 21.2 °F 7.3 °F 10.4 °F 63% 30.41 in 10.0 mi NNW 16.1 mph 27.6 mph N/A   Scattered Clouds
9:35 AM 23.0 °F 8.7 °F 10.4 °F 59% 30.41 in 10.0 mi NNW 18.4 mph 28.8 mph N/A   Clear
9:55 AM 23.0 °F 8.7 °F 10.4 °F 59% 30.43 in 10.0 mi NNW 18.4 mph 25.3 mph N/A   Clear
10:15 AM 24.8 °F 12.9 °F 10.4 °F 54% 30.44 in 10.0 mi NW 13.8 mph 26.5 mph N/A   Scattered Clouds
10:35 AM 24.8 °F 10.7 °F 10.4 °F 54% 30.44 in 10.0 mi NNW 19.6 mph 25.3 mph N/A   Mostly Cloudy
10:55 AM 26.6 °F 13.8 °F 10.4 °F 51% 30.44 in 10.0 mi NNW 17.3 mph 26.5 mph N/A   Scattered Clouds
11:15 AM 24.8 °F 12.4 °F 10.4 °F 54% 30.44 in 10.0 mi NW 15.0 mph 21.9 mph N/A   Mostly Cloudy
11:35 AM 24.8 °F 11.9 °F 10.4 °F 54% 30.44 in 10.0 mi NW 16.1 mph 21.9 mph N/A   Mostly Cloudy
11:55 AM 26.6 °F 14.3 °F 10.4 °F 51% 30.44 in 10.0 mi NW 16.1 mph 25.3 mph N/A   Scattered Clouds
12:15 PM 26.6 °F 14.3 °F 12.2 °F 55% 30.43 in 10.0 mi NNW 16.1 mph 26.5 mph N/A   Scattered Clouds
12:35 PM 26.6 °F 14.7 °F 10.4 °F 51% 30.43 in 10.0 mi NNW 15.0 mph 20.7 mph N/A   Scattered Clouds
12:55 PM 26.6 °F 14.3 °F 10.4 °F 51% 30.42 in 10.0 mi NNW 16.1 mph 24.2 mph N/A   Clear
1:15 PM 26.6 °F 14.3 °F 10.4 °F 51% 30.42 in 10.0 mi NW 16.1 mph 27.6 mph N/A   Clear
1:35 PM 26.6 °F 14.7 °F 10.4 °F 51% 30.42 in 10.0 mi NW 15.0 mph 25.3 mph N/A   Clear
1:55 PM 28.4 °F 16.2 °F 10.4 °F 47% 30.41 in 10.0 mi NW 17.3 mph 24.2 mph N/A   Clear
2:15 PM 28.4 °F 17.0 °F 10.4 °F 47% 30.41 in 10.0 mi NW 15.0 mph 21.9 mph N/A   Clear
2:35 PM 28.4 °F 16.2 °F 10.4 °F 47% 30.41 in 10.0 mi WNW 17.3 mph 20.7 mph N/A   Clear
2:55 PM 28.4 °F 17.5 °F 10.4 °F 47% 30.41 in 10.0 mi NW 13.8 mph 21.9 mph N/A   Clear
3:15 PM 26.6 °F 13.8 °F 10.4 °F 51% 30.41 in 10.0 mi NW 17.3 mph 21.9 mph N/A   Clear
3:35 PM 26.6 °F 14.7 °F 10.4 °F 51% 30.41 in 10.0 mi NW 15.0 mph - N/A   Clear
3:55 PM 28.4 °F 17.0 °F 10.4 °F 47% 30.41 in 10.0 mi NW 15.0 mph - N/A   Clear
4:15 PM 26.6 °F 16.2 °F 8.6 °F 47% 30.41 in 10.0 mi NW 11.5 mph 21.9 mph N/A   Clear
4:35 PM 26.6 °F 16.2 °F 8.6 °F 47% 30.41 in 10.0 mi NW 11.5 mph - N/A   Clear
4:55 PM 24.8 °F 15.3 °F 8.6 °F 50% 30.40 in 10.0 mi NW 9.2 mph - N/A   Clear
5:15 PM 24.8 °F 16.1 °F 10.4 °F 54% 30.40 in 10.0 mi NW 8.1 mph - N/A   Clear
5:35 PM 21.2 °F 13.6 °F 10.4 °F 63% 30.41 in 10.0 mi NNW 5.8 mph - N/A   Clear
5:55 PM 19.4 °F 14.3 °F 8.6 °F 63% 30.41 in 10.0 mi NNW 3.5 mph - N/A   Clear
6:15 PM 17.6 °F - 8.6 °F 68% 30.41 in 10.0 mi Calm Calm - N/A   Clear
6:35 PM 17.6 °F - 8.6 °F 68% 30.40 in 10.0 mi Calm Calm - N/A   Clear
6:55 PM 17.6 °F - 8.6 °F 68% 30.40 in 10.0 mi Calm Calm - N/A   Clear
7:15 PM 19.4 °F 12.8 °F 8.6 °F 63% 30.39 in 10.0 mi NW 4.6 mph - N/A   Clear
7:35 PM 17.6 °F - 8.6 °F 68% 30.39 in 10.0 mi Calm Calm - N/A   Clear
7:55 PM 17.6 °F 12.3 °F 8.6 °F 68% 30.40 in 10.0 mi NW 3.5 mph - N/A   Clear
8:15 PM 19.4 °F 14.3 °F 8.6 °F 63% 30.40 in 10.0 mi NNW 3.5 mph - N/A   Clear
8:35 PM 17.6 °F - 8.6 °F 68% 30.39 in 10.0 mi Calm Calm - N/A   Clear
8:55 PM 17.6 °F - 8.6 °F 68% 30.38 in 10.0 mi Calm Calm - N/A   Clear
9:15 PM 17.6 °F - 8.6 °F 68% 30.38 in 10.0 mi Calm Calm - N/A   Clear
9:35 PM 19.4 °F - 8.6 °F 63% 30.37 in 10.0 mi Calm Calm - N/A   Clear
9:55 PM 19.4 °F - 8.6 °F 63% 30.37 in 10.0 mi Calm Calm - N/A   Clear
10:15 PM 19.4 °F 14.3 °F 8.6 °F 63% 30.36 in 10.0 mi North 3.5 mph - N/A   Clear
10:35 PM 17.6 °F - 8.6 °F 68% 30.36 in 10.0 mi Calm Calm - N/A   Clear
10:55 PM 17.6 °F - 8.6 °F 68% 30.35 in 10.0 mi Calm Calm - N/A   Clear
11:15 PM 17.6 °F - 8.6 °F 68% 30.35 in 10.0 mi Calm Calm - N/A   Clear
11:35 PM 19.4 °F - 10.4 °F 68% 30.35 in 10.0 mi Calm Calm - N/A   Clear
11:55 PM 19.4 °F - 10.4 °F 68% 30.35 in 10.0 mi Calm Calm - N/A   Clear